sat.trackr.live / text

‹ back to catalog

STARLINK-34605

NORAD 64677 · 2025-139P

PAYLOAD ACTIVE UNKNOWN

§ Identity

Operator
Country
US
Launch date
2025-06-28
Launch site
AFETR
Launch vehicle
Mass (kg)
RCS (m²)

Purposes: comms

External: N2YO · Heavens-Above · Gunter

§ Orbital elements

Epoch: 2026-09-20T13:39:39.778560Z

Period
93.85 min
Inclination
53.1577°
Eccentricity
0.0001214
Mean motion
15.34399333 rev/d
Perigee alt
461.9 km
Apogee alt
463.5 km
Semi-major
6,840.8 km
B*
3.6317e-4
RAAN
289.6045°
Arg perigee
87.7459°
Mean anomaly
272.3682°
Rev number
7,029

§ Raw data

STARLINK-346051 64677U 25139P   26263.56921040  .00011913  00000+0  36317-3 0  99932 64677  53.1577 289.6045 0001214  87.7459 272.3682 15.34399333 70293

JSON: /api/v1/satellites/64677 · /tle

For live sub-satellite position, see the globe view (requires WebGL).

§ Visibility from observer

Set your observer location to see the next 7 days of passes ≥ 10°. The values pass through the URL so the page stays shareable.

No JS? Fill the form by hand. The geolocation button needs JavaScript.